This demonstration page uses our WeatherBlox Daily Observations layout. Learn more.

Left ArrowRight Arrow

44.31136, -96.79839

Hourly Observations for September 8, 2021

Temp ( °F °C ) Dew Point ( °F °C ) Humidity (%) Winds ( mph kmh ) Pressure ( in mb ) Visibility ( mi km ) Precip ( " mm )
12:56 am 00:56 Clear 54 12.2 45 7.2 72 72 WNW 7 11 30.01 1016 10 16 0.00 0.00
1:56 am 01:56 Clear 53 11.7 44 6.7 72 72 WNW 7 11 30.01 1016 10 16 0.00 0.00
2:56 am 02:56 Clear 53 11.7 44 6.7 72 72 Calm 30.01 1016 10 16 0.00 0.00
3:56 am 03:56 Clear 50 10 44 6.7 80 80 NW 5 7 30.03 1017 10 16 0.00 0.00
4:56 am 04:56 Clear 52 11.1 44 6.7 75 75 Calm 30.03 1017 10 16 0.00 0.00
5:56 am 05:56 Clear 51 10.6 45 7.2 80 80 NNW 3 6 30.05 1018 10 16 0.00 0.00
6:56 am 06:56 Clear 51 10.6 45 7.2 80 80 Calm 30.06 1018 10 16 0.00 0.00
7:56 am 07:56 Sunny 50 10 45 7.2 83 83 Calm 30.09 1019 10 16 0.00 0.00
8:56 am 08:56 Sunny 57 13.9 49 9.4 74 74 WNW 7 11 30.09 1019 10 16 0.00 0.00
9:56 am 09:56 Sunny 64 17.8 50 10 60 60 NW 10 17 30.09 1019 10 16 0.00 0.00
10:56 am 10:56 Sunny 68 20 49 9.4 51 51 NNW 16 26 30.09 1019 10 16 0.00 0.00
11:56 am 11:56 Sunny 70 21.1 48 8.9 46 46 NW 20 31 30.08 1019 10 16 0.00 0.00
12:56 pm 12:56 Mostly Cloudy 70 21.1 48 8.9 46 46 NW 14 22 30.09 1019 10 16 0.00 0.00
1:56 pm 13:56 Mostly Cloudy 72 22.2 48 8.9 43 43 NNW 18 30 30.07 1018 10 16 0.00 0.00
2:56 pm 14:56 Mostly Sunny 71 21.7 48 8.9 44 44 N 15 24 30.06 1018 10 16 0.00 0.00
3:56 pm 15:56 Sunny 72 22.2 47 8.3 41 41 NW 17 28 30.07 1018 10 16 0.00 0.00
4:56 pm 16:56 Mostly Sunny 70 21.1 49 9.4 47 47 N 12 19 30.07 1018 10 16 0.00 0.00
5:56 pm 17:56 Mostly Cloudy 72 22.2 48 8.9 43 43 NW 14 22 30.07 1018 10 16 0.00 0.00
6:56 pm 18:56 Mostly Sunny 70 21.1 48 8.9 46 46 NNW 10 17 30.08 1019 10 16 0.00 0.00
7:56 pm 19:56 Clear 64 17.8 49 9.4 58 58 N 6 9 30.09 1019 10 16 0.00 0.00
8:56 pm 20:56 Clear 61 16.1 49 9.4 65 65 N 3 6 30.10 1019 10 16 0.00 0.00
9:56 pm 21:56 Clear 59 15 48 8.9 67 67 Calm 30.10 1019 10 16 0.00 0.00
10:56 pm 22:56 Clear 54 12.2 48 8.9 80 80 WSW 3 6 30.10 1019 10 16 0.00 0.00
11:56 pm 23:56 Clear 54 12.2 48 8.9 80 80 Calm 30.10 1019 10 16 0.00 0.00

Powered by AerisWeather